Weather History for KCBE - November, 2013

Change the Weather History Date:

Thursday, November 28, 2013

  Actual Average (KMRB) Record (KMRB)
Temperature  
Mean Temperature 30 °F 40 °F  
Max Temperature 33 °F 49 °F 75 °F (1998)
Min Temperature 26 °F 31 °F 12 °F (1938)
Degree Days  
Heating Degree Days 36 25  
Month to date heating degree days 572  
Since 1 July heating degree days 1018  
Cooling Degree Days 0 0  
Month to date cooling degree days 0  
Year to date cooling degree days 895  
Moisture  
Dew Point 16 °F    
Average Humidity 56    
Maximum Humidity 69    
Minimum Humidity 47    
Precipitation  
Precipitation 0.00 in 0.11 in 2.70 in (1984)
Month to date precipitation 2.90  
Year to date precipitation 35.76  
Sea Level Pressure  
Sea Level Pressure 30.36 in    
Wind  
Wind Speed 6 mph (West)    
Max Wind Speed 14 mph    
Max Gust Speed 24 mph    
Visibility 10 miles    
Events      
T = Trace of Precipitation, MM = Missing Value Source: NWS Daily Summary

Daily Weather History Graph

Daily Weather History Graph

Search for Another Location

Airport or City:

Trip Planner

Search our weather history database for the weather conditions in past years. The results will help you decide how hot, cold, wet, or windy it might be!

Date:

Astronomy

Nov. 28, 2013 Rise Set
Actual Time 7:13 AM EST 4:52 PM EST
Civil Twilight 6:44 AM EST 5:21 PM EST
Nautical Twilight 6:10 AM EST 5:55 PM EST
Astronomical Twilight 5:38 AM EST 6:27 PM EST
Moon 2:15 AM EST (11/28) 1:59 PM EST (11/28)
Length of Visible Light 10h 37m
Length of Day
9h 38m
Waning Crescent, 22% of the Moon is Illuminated
Nov 28
Waning Crescent
Dec 2
New
Dec 9
First Quarter
Dec 17
Full
Dec 25
Last Quarter

Hourly Weather History & Observations

Time (EST) Temp. Windchill Dew Point Humidity Pressure Visibility Wind Dir Wind Speed Gust Speed Precip Events Conditions
12:08 AM 28.4 °F 21.2 °F 15.8 °F 59% 30.12 in 10.0 mi NW 6.9 mph - N/A   Mostly Cloudy
12:28 AM 28.4 °F 19.7 °F 14.0 °F 55% 30.13 in 10.0 mi West 9.2 mph - N/A   Mostly Cloudy
12:48 AM 28.4 °F 20.4 °F 12.2 °F 51% 30.14 in 10.0 mi SW 8.1 mph 21.9 mph N/A   Mostly Cloudy
1:08 AM 28.4 °F 21.2 °F 10.4 °F 47% 30.15 in 10.0 mi NW 6.9 mph 24.2 mph N/A   Overcast
1:28 AM 28.4 °F 20.4 °F 10.4 °F 47% 30.17 in 10.0 mi WNW 8.1 mph 16.1 mph N/A   Mostly Cloudy
1:48 AM 28.4 °F 22.2 °F 10.4 °F 47% 30.18 in 10.0 mi WSW 5.8 mph - N/A   Mostly Cloudy
2:08 AM 28.4 °F 22.2 °F 12.2 °F 51% 30.19 in 10.0 mi WSW 5.8 mph - N/A   Overcast
2:28 AM 28.4 °F 20.4 °F 12.2 °F 51% 30.20 in 10.0 mi NW 8.1 mph - N/A   Overcast
2:48 AM 28.4 °F 24.6 °F 14.0 °F 55% 30.22 in 10.0 mi WSW 3.5 mph - N/A   Overcast
3:08 AM 28.4 °F 24.6 °F 12.2 °F 51% 30.23 in 10.0 mi WNW 3.5 mph - N/A   Overcast
3:28 AM 28.4 °F 24.6 °F 12.2 °F 51% 30.23 in 10.0 mi NW 3.5 mph - N/A   Overcast
3:49 AM 28.4 °F 19.7 °F 12.2 °F 51% 30.24 in 10.0 mi West 9.2 mph - N/A   Overcast
4:09 AM 28.4 °F 22.2 °F 12.2 °F 51% 30.24 in 10.0 mi WSW 5.8 mph - N/A   Overcast
4:29 AM 28.4 °F 21.2 °F 12.2 °F 51% 30.25 in 10.0 mi West 6.9 mph - N/A   Overcast
4:49 AM 26.6 °F - 12.2 °F 55% 30.25 in 10.0 mi Calm Calm - N/A   Mostly Cloudy
5:09 AM 26.6 °F 18.2 °F 12.2 °F 55% 30.25 in 10.0 mi WSW 8.1 mph - N/A   Scattered Clouds
5:29 AM 26.6 °F 18.2 °F 12.2 °F 55% 30.26 in 10.0 mi SSW 8.1 mph 16.1 mph N/A   Scattered Clouds
5:49 AM 26.6 °F 19.1 °F 12.2 °F 55% 30.28 in 10.0 mi WSW 6.9 mph - N/A   Clear
6:09 AM 26.6 °F 22.6 °F 12.2 °F 55% 30.30 in 10.0 mi SSW 3.5 mph - N/A   Clear
6:29 AM 26.6 °F 19.1 °F 12.2 °F 55% 30.31 in 10.0 mi WSW 6.9 mph - N/A   Clear
6:49 AM 26.6 °F 20.0 °F 12.2 °F 55% 30.32 in 10.0 mi WSW 5.8 mph 9.2 mph N/A   Clear
7:09 AM 26.6 °F 19.1 °F 12.2 °F 55% 30.34 in 10.0 mi WSW 6.9 mph - N/A   Clear
7:29 AM 26.6 °F 18.2 °F 12.2 °F 55% 30.35 in 10.0 mi West 8.1 mph 17.3 mph N/A   Clear
7:49 AM 26.6 °F 16.8 °F 14.0 °F 59% 30.36 in 10.0 mi WSW 10.4 mph 16.1 mph N/A   Clear
8:09 AM 28.4 °F 20.4 °F 14.0 °F 55% 30.37 in 10.0 mi West 8.1 mph - N/A   Clear
8:29 AM 28.4 °F 19.7 °F 14.0 °F 55% 30.37 in 10.0 mi WNW 9.2 mph 17.3 mph N/A   Clear
8:49 AM 28.4 °F 21.2 °F 14.0 °F 55% 30.39 in 10.0 mi West 6.9 mph - N/A   Scattered Clouds
9:09 AM 28.4 °F 20.4 °F 14.0 °F 55% 30.40 in 10.0 mi West 8.1 mph - N/A   Scattered Clouds
9:29 AM 28.4 °F 18.0 °F 15.8 °F 59% 30.40 in 10.0 mi West 12.7 mph 17.3 mph N/A   Scattered Clouds
9:49 AM 30.2 °F 20.8 °F 15.8 °F 55% 30.41 in 10.0 mi West 11.5 mph 16.1 mph N/A   Scattered Clouds
10:09 AM 30.2 °F 21.9 °F 14.0 °F 51% 30.41 in 10.0 mi WNW 9.2 mph 18.4 mph N/A   Scattered Clouds
10:29 AM 30.2 °F 21.9 °F 14.0 °F 51% 30.42 in 10.0 mi West 9.2 mph 17.3 mph N/A   Scattered Clouds
10:49 AM 30.2 °F 24.3 °F 14.0 °F 51% 30.43 in 10.0 mi West 5.8 mph 9.2 mph N/A   Scattered Clouds
11:09 AM 32.0 °F 25.6 °F 15.8 °F 51% 30.43 in 10.0 mi NW 6.9 mph 18.4 mph N/A   Scattered Clouds
11:29 AM 30.2 °F 19.8 °F 14.0 °F 51% 30.43 in 10.0 mi WNW 13.8 mph 18.4 mph N/A   Scattered Clouds
11:49 AM 32.0 °F 22.5 °F 14.0 °F 48% 30.42 in 10.0 mi West 12.7 mph 17.3 mph N/A   Mostly Cloudy
12:09 PM 32.0 °F 23.6 °F 14.0 °F 48% 30.42 in 10.0 mi WNW 10.4 mph 19.6 mph N/A   Mostly Cloudy
12:29 PM 33.8 °F 28.6 °F 17.6 °F 52% 30.41 in 10.0 mi WSW 5.8 mph - N/A   Mostly Cloudy
2:50 PM 33.8 °F 30.8 °F 17.6 °F 52% 30.39 in 10.0 mi NW 3.5 mph - N/A   Mostly Cloudy
3:10 PM 33.8 °F 27.0 °F 17.6 °F 52% 30.39 in 10.0 mi SSW 8.1 mph - N/A   Mostly Cloudy
3:30 PM 33.8 °F - 17.6 °F 52% 30.39 in 10.0 mi Calm Calm - N/A   Scattered Clouds
3:50 PM 32.0 °F 24.8 °F 17.6 °F 55% 30.40 in 10.0 mi West 8.1 mph - N/A   Mostly Cloudy
4:10 PM 32.0 °F 26.4 °F 17.6 °F 55% 30.40 in 10.0 mi WNW 5.8 mph - N/A   Mostly Cloudy
4:30 PM 32.0 °F 28.7 °F 17.6 °F 55% 30.41 in 10.0 mi SW 3.5 mph - N/A   Mostly Cloudy
4:50 PM 32.0 °F - 17.6 °F 55% 30.40 in 10.0 mi Calm Calm - N/A   Scattered Clouds
5:10 PM 32.0 °F 28.7 °F 17.6 °F 55% 30.41 in 10.0 mi SW 3.5 mph - N/A   Scattered Clouds
5:30 PM 32.0 °F - 17.6 °F 55% 30.41 in 10.0 mi Calm Calm - N/A   Scattered Clouds
5:50 PM 32.0 °F - 17.6 °F 55% 30.41 in 10.0 mi Calm Calm - N/A   Mostly Cloudy
6:10 PM 32.0 °F 28.7 °F 19.4 °F 60% 30.41 in 10.0 mi NNW 3.5 mph - N/A   Mostly Cloudy
6:30 PM 32.0 °F - 19.4 °F 60% 30.42 in 10.0 mi Calm Calm - N/A   Mostly Cloudy
6:50 PM 32.0 °F - 19.4 °F 60% 30.42 in 10.0 mi Calm Calm - N/A   Overcast
7:10 PM 32.0 °F - 21.2 °F 64% 30.43 in 10.0 mi Calm Calm - N/A   Overcast
7:30 PM 32.0 °F - 19.4 °F 60% 30.44 in 10.0 mi Calm Calm - N/A   Overcast
7:50 PM 32.0 °F - 19.4 °F 60% 30.44 in 10.0 mi Calm Calm - N/A   Overcast
8:10 PM 32.0 °F - 19.4 °F 60% 30.44 in 10.0 mi Calm Calm - N/A   Overcast
8:30 PM 32.0 °F - 19.4 °F 60% 30.44 in 10.0 mi Calm Calm - N/A   Overcast
8:50 PM 32.0 °F - 21.2 °F 64% 30.44 in 10.0 mi Calm Calm - N/A   Overcast
9:11 PM 32.0 °F 28.7 °F 23.0 °F 69% 30.45 in 10.0 mi SSE 3.5 mph - N/A   Overcast
9:31 PM 32.0 °F - 23.0 °F 69% 30.46 in 10.0 mi Calm Calm - N/A   Overcast
9:51 PM 32.0 °F 27.5 °F 21.2 °F 64% 30.46 in 10.0 mi SSW 4.6 mph - N/A   Overcast
10:11 PM 32.0 °F 28.7 °F 21.2 °F 64% 30.46 in 10.0 mi SSW 3.5 mph - N/A   Overcast
10:31 PM 32.0 °F 28.7 °F 21.2 °F 64% 30.47 in 10.0 mi SSW 3.5 mph - N/A   Overcast
10:51 PM 32.0 °F - 21.2 °F 64% 30.47 in 10.0 mi Calm Calm - N/A   Overcast
11:11 PM 32.0 °F - 21.2 °F 64% 30.47 in 10.0 mi Calm Calm - N/A   Overcast
11:31 PM 32.0 °F - 21.2 °F 64% 30.48 in 10.0 mi Calm Calm - N/A   Overcast
11:51 PM 32.0 °F - 21.2 °F 64% 30.48 in 10.0 mi Calm Calm - N/A   Overcast